Time,TemperatureF,DewpointF,PressureIn,WindDirection,WindDirectionDegrees,WindSpeedMPH,WindSpeedGustMPH,Humidity,HourlyPrecipIn,Conditions,Clouds,dailyrainin,SolarRadiationWatts/m^2,SoftwareType,DateUTC
2013-03-13 00:12:00,63.0,24.0,-100.00,ESE,113,10.0,16.0,22,-99.99,,,-99.99,0.000000,,2013-03-13 07:12:00,
2013-03-13 00:22:00,64.0,23.0,-100.00,ESE,104,10.0,15.0,21,-99.99,,,-99.99,0.000000,,2013-03-13 07:22:00,
2013-03-13 00:32:00,63.0,24.0,-100.00,ESE,112,9.0,14.0,22,-99.99,,,-99.99,0.000000,,2013-03-13 07:32:00,
2013-03-13 00:42:00,62.0,25.0,-100.00,SE,129,8.0,11.0,24,-99.99,,,-99.99,0.000000,,2013-03-13 07:42:00,
2013-03-13 01:02:00,60.0,24.0,-100.00,SE,130,8.0,11.0,25,-99.99,,,-99.99,0.000000,,2013-03-13 08:02:00,
2013-03-13 01:12:00,60.0,24.0,-100.00,ESE,123,7.0,10.0,25,-99.99,,,-99.99,0.000000,,2013-03-13 08:12:00,
2013-03-13 01:22:00,60.0,24.0,-100.00,SE,126,9.0,11.0,25,-99.99,,,-99.99,0.000000,,2013-03-13 08:22:00,
2013-03-13 01:32:00,60.0,24.0,-100.00,SE,126,9.0,11.0,25,-99.99,,,-99.99,0.000000,,2013-03-13 08:32:00,
2013-03-13 01:42:00,60.0,25.0,-100.00,ESE,107,8.0,10.0,26,-99.99,,,-99.99,0.000000,,2013-03-13 08:42:00,
2013-03-13 01:52:00,60.0,25.0,-100.00,ESE,110,9.0,12.0,26,-99.99,,,-99.99,0.000000,,2013-03-13 08:52:00,
2013-03-13 02:02:00,60.0,24.0,-100.00,ESE,114,8.0,12.0,25,-99.99,,,-99.99,0.000000,,2013-03-13 09:02:00,
2013-03-13 02:12:00,60.0,24.0,-100.00,ESE,120,7.0,11.0,25,-99.99,,,-99.99,0.000000,,2013-03-13 09:12:00,
2013-03-13 02:22:00,60.0,24.0,-100.00,SE,139,6.0,10.0,25,-99.99,,,-99.99,0.000000,,2013-03-13 09:22:00,
2013-03-13 02:32:00,61.0,24.0,-100.00,SE,139,4.0,9.0,24,-99.99,,,-99.99,0.000000,,2013-03-13 09:32:00,
2013-03-13 02:42:00,63.0,24.0,-100.00,ESE,110,5.0,13.0,22,-99.99,,,-99.99,0.000000,,2013-03-13 09:42:00,
2013-03-13 02:52:00,65.0,23.0,-100.00,ENE,68,8.0,15.0,20,-99.99,,,-99.99,0.000000,,2013-03-13 09:52:00,
2013-03-13 03:01:00,66.0,24.0,-100.00,ENE,62,11.0,19.0,20,-99.99,,,-99.99,0.000000,,2013-03-13 10:01:00,
2013-03-13 03:11:00,66.0,24.0,-100.00,ENE,68,12.0,20.0,20,-99.99,,,-99.99,0.000000,,2013-03-13 10:11:00,
2013-03-13 03:22:00,67.0,25.0,-100.00,ENE,69,12.0,21.0,20,-99.99,,,-99.99,0.000000,,2013-03-13 10:22:00,
2013-03-13 03:32:00,67.0,25.0,-100.00,ENE,71,13.0,21.0,20,-99.99,,,-99.99,0.000000,,2013-03-13 10:32:00,
2013-03-13 03:42:00,66.0,24.0,-100.00,ENE,71,11.0,20.0,20,-99.99,,,-99.99,0.000000,,2013-03-13 10:42:00,
2013-03-13 03:52:00,66.0,24.0,-100.00,ENE,74,12.0,20.0,20,-99.99,,,-99.99,0.000000,,2013-03-13 10:52:00,
2013-03-13 04:02:00,66.0,25.0,-100.00,ENE,68,10.0,20.0,21,-99.99,,,-99.99,0.000000,,2013-03-13 11:02:00,
2013-03-13 04:12:00,66.0,24.0,-100.00,ENE,70,11.0,23.0,20,-99.99,,,-99.99,0.000000,,2013-03-13 11:12:00,
2013-03-13 04:22:00,66.0,24.0,-100.00,ENE,69,12.0,21.0,20,-99.99,,,-99.99,0.000000,,2013-03-13 11:22:00,
2013-03-13 04:32:00,65.0,24.0,-100.00,ENE,65,9.0,17.0,21,-99.99,,,-99.99,0.000000,,2013-03-13 11:32:00,
2013-03-13 04:42:00,65.0,24.0,-100.00,ENE,65,9.0,17.0,21,-99.99,,,-99.99,0.000000,,2013-03-13 11:42:00,
2013-03-13 04:52:00,65.0,24.0,-100.00,ENE,67,8.0,16.0,21,-99.99,,,-99.99,0.000000,,2013-03-13 11:52:00,
2013-03-13 05:02:00,65.0,24.0,-100.00,ENE,66,11.0,18.0,21,-99.99,,,-99.99,0.000000,,2013-03-13 12:02:00,
2013-03-13 05:12:00,65.0,24.0,-100.00,ENE,69,11.0,19.0,21,-99.99,,,-99.99,0.000000,,2013-03-13 12:12:00,
2013-03-13 05:22:00,65.0,24.0,-100.00,ENE,67,9.0,16.0,21,-99.99,,,-99.99,0.000000,,2013-03-13 12:22:00,
2013-03-13 05:32:00,65.0,25.0,-100.00,ENE,67,6.0,13.0,22,-99.99,,,-99.99,0.000000,,2013-03-13 12:32:00,
2013-03-13 05:42:00,65.0,24.0,-100.00,NE,54,8.0,18.0,21,-99.99,,,-99.99,0.000000,,2013-03-13 12:42:00,
2013-03-13 05:52:00,66.0,25.0,-100.00,ENE,61,7.0,17.0,21,-99.99,,,-99.99,0.000000,,2013-03-13 12:52:00,
2013-03-13 06:02:00,65.0,24.0,-100.00,ENE,64,8.0,20.0,21,-99.99,,,-99.99,0.000000,,2013-03-13 13:02:00,
2013-03-13 06:11:00,65.0,24.0,-100.00,ENE,71,9.0,17.0,21,-99.99,,,-99.99,0.000000,,2013-03-13 13:11:00,
2013-03-13 06:22:00,66.0,24.0,-100.00,ENE,59,10.0,17.0,20,-99.99,,,-99.99,0.000000,,2013-03-13 13:22:00,
2013-03-13 06:32:00,66.0,25.0,-100.00,ENE,62,9.0,17.0,21,-99.99,,,-99.99,0.000000,,2013-03-13 13:32:00,
2013-03-13 06:42:00,65.0,24.0,-100.00,ENE,61,8.0,16.0,21,-99.99,,,-99.99,0.000000,,2013-03-13 13:42:00,
2013-03-13 06:52:00,66.0,25.0,-100.00,ENE,71,10.0,18.0,21,-99.99,,,-99.99,0.000000,,2013-03-13 13:52:00,
2013-03-13 07:02:00,66.0,24.0,-100.00,ENE,71,11.0,20.0,20,-99.99,,,-99.99,0.000000,,2013-03-13 14:02:00,
2013-03-13 07:11:00,66.0,24.0,-100.00,ENE,71,11.0,20.0,20,-99.99,,,-99.99,0.000000,,2013-03-13 14:11:00,
2013-03-13 07:21:00,66.0,24.0,-100.00,ENE,78,12.0,20.0,20,-99.99,,,-99.99,0.000000,,2013-03-13 14:21:00,
2013-03-13 07:33:00,65.0,24.0,-100.00,East,79,9.0,15.0,21,-99.99,,,-99.99,0.000000,,2013-03-13 14:33:00,
2013-03-13 07:42:00,65.0,23.0,-100.00,ENE,78,14.0,22.0,20,-99.99,,,-99.99,0.000000,,2013-03-13 14:42:00,
2013-03-13 07:52:00,66.0,24.0,-100.00,ENE,77,13.0,20.0,20,-99.99,,,-99.99,0.000000,,2013-03-13 14:52:00,
2013-03-13 08:02:00,66.0,24.0,-100.00,East,79,15.0,22.0,20,-99.99,,,-99.99,286.899994,,2013-03-13 15:02:00,
2013-03-13 08:11:00,67.0,23.0,-100.00,East,79,14.0,20.0,19,-99.99,,,-99.99,59.189999,,2013-03-13 15:11:00,
2013-03-13 08:22:00,67.0,23.0,-100.00,East,79,13.0,23.0,19,-99.99,,,-99.99,0.000000,,2013-03-13 15:22:00,
2013-03-13 08:32:00,68.0,24.0,-100.00,ENE,77,13.0,20.0,19,-99.99,,,-99.99,198.500000,,2013-03-13 15:32:00,
2013-03-13 08:42:00,68.0,24.0,-100.00,East,80,13.0,23.0,19,-99.99,,,-99.99,731.200012,,2013-03-13 15:42:00,
2013-03-13 08:52:00,69.0,25.0,-100.00,ENE,78,13.0,21.0,19,-99.99,,,-99.99,1117.000000,,2013-03-13 15:52:00,
2013-03-13 09:02:00,69.0,25.0,-100.00,ENE,73,11.0,20.0,19,-99.99,,,-99.99,885.000000,,2013-03-13 16:02:00,
2013-03-13 09:12:00,70.0,26.0,-100.00,ENE,74,13.0,22.0,19,-99.99,,,-99.99,882.000000,,2013-03-13 16:12:00,
2013-03-13 09:22:00,70.0,26.0,-100.00,ENE,76,14.0,26.0,19,-99.99,,,-99.99,535.799988,,2013-03-13 16:22:00,
2013-03-13 09:32:00,71.0,25.0,-100.00,ENE,78,14.0,26.0,18,-99.99,,,-99.99,313.399994,,2013-03-13 16:32:00,
2013-03-13 09:42:00,71.0,25.0,-100.00,ENE,70,12.0,19.0,18,-99.99,,,-99.99,78.379997,,2013-03-13 16:42:00,
2013-03-13 09:52:00,72.0,26.0,-100.00,ENE,70,12.0,25.0,18,-99.99,,,-99.99,0.000000,,2013-03-13 16:52:00,
2013-03-13 10:02:00,72.0,25.0,-100.00,ENE,74,14.0,22.0,17,-99.99,,,-99.99,0.000000,,2013-03-13 17:02:00,
2013-03-13 10:11:00,72.0,25.0,-100.00,ENE,76,14.0,24.0,17,-99.99,,,-99.99,0.000000,,2013-03-13 17:11:00,
2013-03-13 10:22:00,73.0,26.0,-100.00,ENE,72,11.0,19.0,17,-99.99,,,-99.99,0.000000,,2013-03-13 17:22:00,
2013-03-13 10:32:00,73.0,26.0,-100.00,East,79,13.0,20.0,17,-99.99,,,-99.99,0.000000,,2013-03-13 17:32:00,
2013-03-13 10:42:00,73.0,26.0,-100.00,ENE,72,11.0,22.0,17,-99.99,,,-99.99,0.000000,,2013-03-13 17:42:00,
2013-03-13 10:53:00,74.0,26.0,-100.00,ENE,65,9.0,20.0,17,-99.99,,,-99.99,0.000000,,2013-03-13 17:53:00,
2013-03-13 11:02:00,74.0,26.0,-100.00,ENE,74,10.0,17.0,17,-99.99,,,-99.99,0.000000,,2013-03-13 18:02:00,
2013-03-13 11:12:00,74.0,26.0,-100.00,East,83,12.0,22.0,17,-99.99,,,-99.99,0.000000,,2013-03-13 18:12:00,
2013-03-13 11:22:00,74.0,26.0,-100.00,East,79,12.0,25.0,17,-99.99,,,-99.99,0.000000,,2013-03-13 18:22:00,
2013-03-13 11:32:00,75.0,26.0,-100.00,ENE,72,11.0,19.0,16,-99.99,,,-99.99,0.000000,,2013-03-13 18:32:00,
2013-03-13 11:42:00,74.0,25.0,-100.00,East,82,11.0,21.0,16,-99.99,,,-99.99,0.000000,,2013-03-13 18:42:00,
2013-03-13 11:52:00,74.0,25.0,-100.00,East,91,15.0,24.0,16,-99.99,,,-99.99,0.000000,,2013-03-13 18:52:00,
2013-03-13 12:02:00,75.0,26.0,-100.00,ENE,75,11.0,21.0,16,-99.99,,,-99.99,0.000000,,2013-03-13 19:02:00,
2013-03-13 12:12:00,75.0,24.0,-100.00,East,87,13.0,23.0,15,-99.99,,,-99.99,0.000000,,2013-03-13 19:12:00,
2013-03-13 12:22:00,76.0,27.0,-100.00,East,79,8.0,14.0,16,-99.99,,,-99.99,0.000000,,2013-03-13 19:22:00,
2013-03-13 12:32:00,76.0,27.0,-100.00,East,79,8.0,14.0,16,-99.99,,,-99.99,0.000000,,2013-03-13 19:32:00,
2013-03-13 12:42:00,76.0,25.0,-100.00,ESE,109,11.0,18.0,15,-99.99,,,-99.99,0.000000,,2013-03-13 19:42:00,
2013-03-13 12:52:00,77.0,26.0,-100.00,ESE,107,8.0,14.0,15,-99.99,,,-99.99,0.000000,,2013-03-13 19:52:00,
2013-03-13 13:02:00,77.0,22.0,-100.00,East,100,12.0,18.0,13,-99.99,,,-99.99,0.000000,,2013-03-13 20:02:00,
2013-03-13 13:11:00,77.0,24.0,-100.00,East,101,12.0,19.0,14,-99.99,,,-99.99,0.000000,,2013-03-13 20:11:00,
2013-03-13 13:22:00,76.0,22.0,-100.00,East,99,13.0,20.0,13,-99.99,,,-99.99,0.000000,,2013-03-13 20:22:00,
2013-03-13 13:32:00,77.0,22.0,-100.00,East,95,11.0,17.0,13,-99.99,,,-99.99,0.000000,,2013-03-13 20:32:00,
2013-03-13 13:41:00,78.0,23.0,-100.00,East,86,10.0,15.0,13,-99.99,,,-99.99,0.000000,,2013-03-13 20:41:00,
2013-03-13 13:52:00,78.0,23.0,-100.00,East,84,9.0,18.0,13,-99.99,,,-99.99,0.000000,,2013-03-13 20:52:00,
2013-03-13 14:02:00,79.0,22.0,-100.00,ENE,75,8.0,14.0,12,-99.99,,,-99.99,0.000000,,2013-03-13 21:02:00,
2013-03-13 14:11:00,78.0,23.0,-100.00,ENE,77,7.0,15.0,13,-99.99,,,-99.99,0.000000,,2013-03-13 21:11:00,
2013-03-13 14:21:00,80.0,28.0,-100.00,NNE,15,5.0,12.0,15,-99.99,,,-99.99,0.000000,,2013-03-13 21:21:00,
2013-03-13 14:32:00,80.0,28.0,-100.00,NNE,15,5.0,12.0,15,-99.99,,,-99.99,0.000000,,2013-03-13 21:32:00,
2013-03-13 14:41:00,79.0,30.0,-100.00,North,8,3.0,9.0,17,-99.99,,,-99.99,0.000000,,2013-03-13 21:41:00,
2013-03-13 14:51:00,79.0,33.0,-100.00,WNW,284,4.0,9.0,19,-99.99,,,-99.99,1.730000,,2013-03-13 21:51:00,
2013-03-13 15:02:00,78.0,35.0,-100.00,WNW,296,8.0,13.0,21,-99.99,,,-99.99,2.390000,,2013-03-13 22:02:00,
2013-03-13 15:12:00,77.0,35.0,-100.00,West,280,11.0,15.0,22,-99.99,,,-99.99,268.299988,,2013-03-13 22:12:00,
2013-03-13 15:22:00,77.0,35.0,-100.00,WNW,298,11.0,17.0,22,-99.99,,,-99.99,352.399994,,2013-03-13 22:22:00,
2013-03-13 15:31:00,77.0,36.0,-100.00,NW,305,10.0,14.0,23,-99.99,,,-99.99,622.700012,,2013-03-13 22:31:00,
2013-03-13 15:42:00,77.0,37.0,-100.00,NW,305,11.0,16.0,24,-99.99,,,-99.99,742.400024,,2013-03-13 22:42:00,
2013-03-13 15:52:00,76.0,38.0,-100.00,WNW,300,9.0,13.0,25,-99.99,,,-99.99,747.900024,,2013-03-13 22:52:00,
2013-03-13 16:12:00,76.0,39.0,-100.00,NW,307,8.0,12.0,26,-99.99,,,-99.99,269.200012,,2013-03-13 23:12:00,
2013-03-13 16:22:00,76.0,39.0,-100.00,NW,304,8.0,12.0,26,-99.99,,,-99.99,70.120003,,2013-03-13 23:22:00,
2013-03-13 16:32:00,75.0,39.0,-100.00,WNW,303,9.0,13.0,27,-99.99,,,-99.99,0.000000,,2013-03-13 23:32:00,
2013-03-13 16:42:00,75.0,39.0,-100.00,WNW,302,7.0,11.0,27,-99.99,,,-99.99,77.239998,,2013-03-13 23:42:00,
2013-03-13 16:52:00,75.0,40.0,-100.00,NW,305,9.0,13.0,28,-99.99,,,-99.99,0.000000,,2013-03-13 23:52:00,
2013-03-13 17:02:00,74.0,40.0,-100.00,WNW,303,10.0,12.0,29,-99.99,,,-99.99,0.000000,,2013-03-14 00:02:00,
2013-03-13 17:12:00,74.0,40.0,-100.00,NW,304,9.0,11.0,29,-99.99,,,-99.99,0.000000,,2013-03-14 00:12:00,
2013-03-13 17:22:00,74.0,40.0,-100.00,NW,304,9.0,11.0,29,-99.99,,,-99.99,0.000000,,2013-03-14 00:22:00,
2013-03-13 17:32:00,74.0,41.0,-100.00,NW,305,8.0,11.0,30,-99.99,,,-99.99,0.000000,,2013-03-14 00:32:00,
2013-03-13 17:42:00,74.0,40.0,-100.00,NW,308,8.0,12.0,29,-99.99,,,-99.99,0.000000,,2013-03-14 00:42:00,
2013-03-13 17:52:00,73.0,41.0,-100.00,WNW,297,9.0,12.0,31,-99.99,,,-99.99,0.000000,,2013-03-14 00:52:00,
2013-03-13 18:02:00,73.0,40.0,-100.00,NW,305,7.0,10.0,30,-99.99,,,-99.99,0.000000,,2013-03-14 01:02:00,
2013-03-13 18:12:00,73.0,40.0,-100.00,NW,305,5.0,7.0,30,-99.99,,,-99.99,0.000000,,2013-03-14 01:12:00,
2013-03-13 18:22:00,73.0,39.0,-100.00,NW,311,5.0,7.0,29,-99.99,,,-99.99,0.000000,,2013-03-14 01:22:00,
2013-03-13 18:32:00,73.0,39.0,-100.00,NW,305,4.0,7.0,29,-99.99,,,-99.99,0.000000,,2013-03-14 01:32:00,
2013-03-13 18:42:00,72.0,39.0,-100.00,NW,312,4.0,6.0,30,-99.99,,,-99.99,0.000000,,2013-03-14 01:42:00,
2013-03-13 18:52:00,72.0,39.0,-100.00,NW,321,4.0,5.0,30,-99.99,,,-99.99,0.000000,,2013-03-14 01:52:00,
2013-03-13 19:02:00,71.0,40.0,-100.00,NW,314,3.0,5.0,32,-99.99,,,-99.99,0.000000,,2013-03-14 02:02:00,
2013-03-13 19:11:00,71.0,40.0,-100.00,NW,318,2.0,3.0,33,-99.99,,,-99.99,0.000000,,2013-03-14 02:11:00,
2013-03-13 19:22:00,70.0,40.0,-100.00,NNW,330,3.0,4.0,33,-99.99,,,-99.99,0.000000,,2013-03-14 02:22:00,
2013-03-13 19:32:00,69.0,39.0,-100.00,NNW,345,3.0,4.0,34,-99.99,,,-99.99,0.000000,,2013-03-14 02:32:00,
2013-03-13 19:42:00,69.0,39.0,-100.00,NNW,345,3.0,4.0,34,-99.99,,,-99.99,0.000000,,2013-03-14 02:42:00,
2013-03-13 19:51:00,69.0,39.0,-100.00,NNW,345,3.0,4.0,34,-99.99,,,-99.99,0.000000,,2013-03-14 02:51:00,
2013-03-13 20:01:00,67.0,39.0,-100.00,East,95,3.0,5.0,36,-99.99,,,-99.99,0.000000,,2013-03-14 03:01:00,
2013-03-13 20:12:00,65.0,40.0,-100.00,SE,125,4.0,6.0,40,-99.99,,,-99.99,0.000000,,2013-03-14 03:12:00,
2013-03-13 20:22:00,64.0,39.0,-100.00,ESE,114,5.0,6.0,39,-99.99,,,-99.99,0.000000,,2013-03-14 03:22:00,
2013-03-13 20:32:00,67.0,34.0,-100.00,East,84,3.0,5.0,29,-99.99,,,-99.99,0.000000,,2013-03-14 03:32:00,
2013-03-13 20:42:00,65.0,37.0,-100.00,ESE,105,3.0,5.0,36,-99.99,,,-99.99,0.000000,,2013-03-14 03:42:00,
2013-03-13 20:52:00,62.0,35.0,-100.00,SE,139,5.0,7.0,37,-99.99,,,-99.99,0.000000,,2013-03-14 03:52:00,
2013-03-13 21:11:00,60.0,35.0,-100.00,SE,128,5.0,6.0,39,-99.99,,,-99.99,0.000000,,2013-03-14 04:11:00,
2013-03-13 21:22:00,61.0,34.0,-100.00,ESE,122,5.0,8.0,36,-99.99,,,-99.99,0.000000,,2013-03-14 04:22:00,
2013-03-13 21:32:00,61.0,34.0,-100.00,ESE,120,5.0,6.0,36,-99.99,,,-99.99,0.000000,,2013-03-14 04:32:00,
2013-03-13 21:42:00,61.0,34.0,-100.00,ESE,120,5.0,6.0,36,-99.99,,,-99.99,0.000000,,2013-03-14 04:42:00,
2013-03-13 21:52:00,59.0,34.0,-100.00,SE,129,6.0,9.0,39,-99.99,,,-99.99,0.000000,,2013-03-14 04:52:00,
2013-03-13 22:02:00,59.0,33.0,-100.00,ESE,120,6.0,7.0,38,-99.99,,,-99.99,0.000000,,2013-03-14 05:02:00,
2013-03-13 22:12:00,59.0,35.0,-100.00,SE,127,5.0,7.0,40,-99.99,,,-99.99,0.000000,,2013-03-14 05:12:00,
2013-03-13 22:22:00,58.0,33.0,-100.00,SE,138,7.0,9.0,38,-99.99,,,-99.99,0.000000,,2013-03-14 05:22:00,
2013-03-13 22:32:00,57.0,32.0,-100.00,SE,129,6.0,8.0,39,-99.99,,,-99.99,0.000000,,2013-03-14 05:32:00,
2013-03-13 22:42:00,58.0,32.0,-100.00,SE,124,6.0,8.0,37,-99.99,,,-99.99,0.000000,,2013-03-14 05:42:00,
2013-03-13 22:52:00,59.0,31.0,-100.00,SE,132,6.0,12.0,35,-99.99,,,-99.99,0.000000,,2013-03-14 05:52:00,
2013-03-13 23:02:00,57.0,31.0,-100.00,SE,145,6.0,10.0,37,-99.99,,,-99.99,0.000000,,2013-03-14 06:02:00,
2013-03-13 23:12:00,60.0,30.0,-100.00,ESE,115,4.0,10.0,32,-99.99,,,-99.99,0.000000,,2013-03-14 06:12:00,
2013-03-13 23:21:00,64.0,28.0,-100.00,ENE,77,4.0,12.0,26,-99.99,,,-99.99,0.000000,,2013-03-14 06:21:00,
2013-03-13 23:32:00,68.0,27.0,-100.00,ENE,64,4.0,10.0,21,-99.99,,,-99.99,0.000000,,2013-03-14 06:32:00,
2013-03-13 23:42:00,69.0,26.0,-100.00,ENE,78,4.0,11.0,20,-99.99,,,-99.99,0.000000,,2013-03-14 06:42:00,
2013-03-13 23:52:00,70.0,26.0,-100.00,East,80,7.0,19.0,19,-99.99,,,-99.99,230.500000,,2013-03-14 06:52:00,